Mineral Point, WI

12:10 PM CDT on June 29, 2017 (GMT -0500)
Iowa County

Weather History for KMRJ - April, 2013

Change the Weather History Date:

Friday, April 19, 2013

  Actual Average (KLNR) Record (KLNR)
Temperature  
Mean Temperature 34 °F -  
Max Temperature 37 °F 57 °F 78 °F (2005)
Min Temperature 32 °F 35 °F 32 °F (1998)
Degree Days  
Heating Degree Days 30    
Moisture  
Dew Point 28 °F    
Average Humidity 77    
Maximum Humidity 93    
Minimum Humidity 56    
Precipitation  
Precipitation 0.00 in - - ()
Sea Level Pressure  
Sea Level Pressure 29.58 in    
Wind  
Wind Speed 20 mph (West)    
Max Wind Speed 32 mph    
Max Gust Speed 39 mph    
Visibility 10 miles    
Events Snow    
Averages and records for this station are not official NWS values.
T = Trace of Precipitation, MM = Missing Value Source: NWS Daily Summary

Daily Weather History Graph

Daily Weather History Graph

Search for Another Location

Airport or City:

Trip Planner

Search our weather history database for the weather conditions in past years. The results will help you decide how hot, cold, wet, or windy it might be!

Date:

Astronomy

Apr. 19, 2013 Rise Set
Actual Time 6:12 AM CDT 7:48 PM CDT
Civil Twilight 5:42 AM CDT 8:18 PM CDT
Nautical Twilight 5:06 AM CDT 8:54 PM CDT
Astronomical Twilight 4:28 AM CDT 9:33 PM CDT
Moon 1:24 PM CDT (4/19) 2:37 AM CDT (4/19)
Length of Visible Light 14h 35m
Length of Day
13h 35m
First Quarter, 62% of the Moon is Illuminated
Apr 19
First Quarter
Apr 25
Full
May 2
Last Quarter
May 9
New
May 17
First Quarter

Hourly Weather History & Observations

Time (CDT) Temp. Windchill Dew Point Humidity Pressure Visibility Wind Dir Wind Speed Gust Speed Precip Events Conditions
12:15 AM 35.6 °F 24.5 °F 32.0 °F 87% 29.41 in 10.0 mi WSW 20.7 mph 26.5 mph N/A   Overcast
12:35 AM 35.6 °F 24.0 °F 32.0 °F 87% 29.41 in 10.0 mi WSW 23.0 mph 27.6 mph N/A   Overcast
12:55 AM 35.6 °F 25.2 °F 32.0 °F 87% 29.41 in 10.0 mi WSW 18.4 mph 33.4 mph N/A Snow Light Snow
1:15 AM 33.8 °F 22.2 °F 32.0 °F 93% 29.41 in 5.0 mi WSW 20.7 mph 26.5 mph N/A Snow Light Snow
1:35 AM 33.8 °F 23.9 °F 32.0 °F 93% 29.41 in 4.0 mi WSW 15.0 mph 26.5 mph N/A Snow Light Snow
1:55 AM 33.8 °F 22.5 °F 32.0 °F 93% 29.40 in 10.0 mi West 19.6 mph 29.9 mph N/A   Overcast
2:15 AM 33.8 °F 21.0 °F 30.2 °F 87% 29.40 in 10.0 mi West 25.3 mph 33.4 mph N/A   Overcast
2:35 AM 33.8 °F 21.6 °F 30.2 °F 87% 29.39 in 10.0 mi WSW 23.0 mph 39.1 mph N/A   Overcast
2:55 AM 33.8 °F 22.2 °F 30.2 °F 87% 29.39 in 10.0 mi West 20.7 mph 32.2 mph N/A   Overcast
3:15 AM 33.8 °F 22.2 °F 30.2 °F 87% 29.40 in 10.0 mi West 20.7 mph 31.1 mph N/A   Overcast
3:35 AM 33.8 °F 21.9 °F 30.2 °F 87% 29.39 in 10.0 mi West 21.9 mph 26.5 mph N/A   Overcast
3:55 AM 33.8 °F 22.5 °F 30.2 °F 87% 29.40 in 10.0 mi West 19.6 mph 31.1 mph N/A   Overcast
4:15 AM 33.8 °F 21.9 °F 30.2 °F 87% 29.40 in 10.0 mi WSW 21.9 mph 27.6 mph N/A   Overcast
4:35 AM 33.8 °F 21.9 °F 30.2 °F 87% 29.40 in 7.0 mi WSW 21.9 mph 27.6 mph N/A   Overcast
4:55 AM 33.8 °F 22.5 °F 30.2 °F 87% 29.40 in 10.0 mi West 19.6 mph 28.8 mph N/A Snow Light Snow
5:15 AM 33.8 °F 21.6 °F 30.2 °F 87% 29.40 in 10.0 mi West 23.0 mph 28.8 mph N/A   Overcast
5:35 AM 33.8 °F 22.8 °F 30.2 °F 87% 29.41 in 10.0 mi WSW 18.4 mph 31.1 mph N/A Snow Light Snow
5:55 AM 33.8 °F 22.2 °F 30.2 °F 87% 29.41 in 10.0 mi WSW 20.7 mph 26.5 mph N/A Snow Light Snow
6:15 AM 33.8 °F 21.3 °F 30.2 °F 87% 29.41 in 10.0 mi WSW 24.2 mph 32.2 mph N/A Snow Light Snow
6:35 AM 33.8 °F 22.5 °F 30.2 °F 87% 29.42 in 10.0 mi West 19.6 mph 26.5 mph N/A Snow Light Snow
6:55 AM 33.8 °F 22.5 °F 30.2 °F 87% 29.42 in 10.0 mi West 19.6 mph 28.8 mph N/A   Overcast
7:15 AM 33.8 °F 21.3 °F 30.2 °F 87% 29.43 in 10.0 mi West 24.2 mph 28.8 mph N/A   Overcast
7:35 AM 33.8 °F 22.2 °F 30.2 °F 87% 29.43 in 10.0 mi West 20.7 mph 33.4 mph N/A Snow Light Snow
7:55 AM 33.8 °F 22.2 °F 28.4 °F 81% 29.43 in 10.0 mi West 20.7 mph 29.9 mph N/A Snow Light Snow
8:15 AM 33.8 °F 22.5 °F 30.2 °F 87% 29.44 in 10.0 mi West 19.6 mph 26.5 mph N/A Snow Light Snow
8:55 AM 33.8 °F 21.9 °F 30.2 °F 87% 29.45 in 7.0 mi West 21.9 mph 27.6 mph N/A Snow Light Snow
9:15 AM 33.8 °F 21.9 °F 30.2 °F 87% 29.46 in 10.0 mi West 21.9 mph 28.8 mph N/A Snow Light Snow
9:35 AM 35.6 °F 24.2 °F 28.4 °F 75% 29.46 in 10.0 mi West 21.9 mph 34.5 mph N/A Snow Light Snow
9:55 AM 35.6 °F 23.4 °F 28.4 °F 75% 29.47 in 10.0 mi West 25.3 mph 34.5 mph N/A   Overcast
10:35 AM 33.8 °F 22.8 °F 30.2 °F 87% 29.50 in 1.2 mi West 18.4 mph 28.8 mph N/A Snow Light Snow
10:55 AM 35.6 °F 24.2 °F 30.2 °F 81% 29.50 in 10.0 mi West 21.9 mph 32.2 mph N/A   Overcast
11:15 AM 35.6 °F 23.2 °F 28.4 °F 75% 29.51 in 10.0 mi West 26.5 mph 33.4 mph N/A Snow Light Snow
11:35 AM 37.4 °F 25.2 °F 30.2 °F 75% 29.51 in 10.0 mi West 28.8 mph 35.7 mph N/A   Overcast
11:55 AM 37.4 °F 25.9 °F 30.2 °F 75% 29.52 in 10.0 mi West 25.3 mph 35.7 mph N/A   Overcast
12:15 PM 35.6 °F 23.2 °F 30.2 °F 81% 29.53 in 10.0 mi West 26.5 mph 35.7 mph N/A   Overcast
12:35 PM 37.4 °F 25.2 °F 26.6 °F 65% 29.53 in 10.0 mi West 28.8 mph 38.0 mph N/A   Overcast
12:55 PM 37.4 °F 24.6 °F 26.6 °F 65% 29.54 in 10.0 mi West 32.2 mph 39.1 mph N/A   Overcast
1:15 PM 37.4 °F 25.9 °F 26.6 °F 65% 29.55 in 10.0 mi West 25.3 mph 36.8 mph N/A   Overcast
1:35 PM 35.6 °F 24.0 °F 28.4 °F 75% 29.57 in 10.0 mi West 23.0 mph 32.2 mph N/A   Overcast
1:55 PM 37.4 °F 25.2 °F 26.6 °F 65% 29.57 in 10.0 mi West 28.8 mph 36.8 mph N/A   Overcast
2:15 PM 37.4 °F 26.9 °F 26.6 °F 65% 29.59 in 10.0 mi WNW 20.7 mph 32.2 mph N/A   Overcast
2:35 PM 35.6 °F 24.5 °F 26.6 °F 70% 29.60 in 10.0 mi West 20.7 mph 28.8 mph N/A Snow Light Snow
2:55 PM 35.6 °F 24.2 °F 26.6 °F 70% 29.61 in 10.0 mi West 21.9 mph 34.5 mph N/A   Overcast
3:15 PM 37.4 °F 26.1 °F 26.6 °F 65% 29.62 in 10.0 mi West 24.2 mph 32.2 mph N/A   Overcast
3:35 PM 37.4 °F 26.6 °F 26.6 °F 65% 29.63 in 10.0 mi West 21.9 mph 31.1 mph N/A   Overcast
3:55 PM 35.6 °F 23.7 °F 26.6 °F 70% 29.64 in 10.0 mi West 24.2 mph 33.4 mph N/A   Overcast
4:15 PM 37.4 °F 26.6 °F 24.8 °F 60% 29.66 in 10.0 mi West 21.9 mph 36.8 mph N/A   Overcast
4:35 PM 35.6 °F 25.2 °F 23.0 °F 60% 29.67 in 10.0 mi WNW 18.4 mph 28.8 mph N/A   Overcast
4:55 PM 35.6 °F 24.8 °F 23.0 °F 60% 29.69 in 10.0 mi NW 19.6 mph 34.5 mph N/A   Overcast
5:15 PM 35.6 °F 25.2 °F 21.2 °F 56% 29.70 in 10.0 mi WNW 18.4 mph 34.5 mph N/A   Overcast
5:35 PM 35.6 °F 25.2 °F 21.2 °F 56% 29.71 in 10.0 mi WNW 18.4 mph 27.6 mph N/A   Overcast
5:55 PM 37.4 °F 27.5 °F 23.0 °F 56% 29.72 in 10.0 mi West 18.4 mph 26.5 mph N/A   Mostly Cloudy
6:15 PM 37.4 °F 27.5 °F 23.0 °F 56% 29.73 in 10.0 mi WNW 18.4 mph 28.8 mph N/A   Mostly Cloudy
6:35 PM 35.6 °F 26.2 °F 23.0 °F 60% 29.74 in 10.0 mi WNW 15.0 mph 26.5 mph N/A   Overcast
6:55 PM 35.6 °F 24.8 °F 26.6 °F 70% 29.75 in 10.0 mi West 19.6 mph 25.3 mph N/A Snow Light Snow
7:15 PM 35.6 °F 24.8 °F 26.6 °F 70% 29.76 in 10.0 mi West 19.6 mph 25.3 mph N/A   Overcast
7:55 PM 35.6 °F 26.2 °F 26.6 °F 70% 29.79 in 10.0 mi WNW 15.0 mph 24.2 mph N/A   Overcast
8:15 PM 33.8 °F 24.3 °F 26.6 °F 75% 29.81 in 10.0 mi West 13.8 mph 19.6 mph N/A   Mostly Cloudy
8:35 PM 33.8 °F 24.3 °F 26.6 °F 75% 29.83 in 10.0 mi WNW 13.8 mph 20.7 mph N/A   Mostly Cloudy
8:55 PM 33.8 °F 27.0 °F 26.6 °F 75% 29.85 in 10.0 mi WNW 8.1 mph - N/A   Mostly Cloudy
9:15 PM 33.8 °F 26.4 °F 26.6 °F 75% 29.85 in 10.0 mi WNW 9.2 mph - N/A Snow Light Snow
9:35 PM 33.8 °F 28.6 °F 26.6 °F 75% 29.87 in 10.0 mi WNW 5.8 mph - N/A Snow Light Snow
9:55 PM 33.8 °F 25.8 °F 26.6 °F 75% 29.88 in 10.0 mi WNW 10.4 mph 17.3 mph N/A   Mostly Cloudy
10:15 PM 33.8 °F 25.3 °F 26.6 °F 75% 29.89 in 10.0 mi NW 11.5 mph 19.6 mph N/A   Overcast
10:35 PM 33.8 °F 26.4 °F 28.4 °F 81% 29.90 in 10.0 mi NNW 9.2 mph - N/A   Mostly Cloudy
10:55 PM 32.0 °F 25.6 °F 26.6 °F 80% 29.91 in 10.0 mi NW 6.9 mph - N/A   Mostly Cloudy
11:15 PM 33.8 °F 24.3 °F 24.8 °F 70% 29.92 in 10.0 mi NW 13.8 mph 20.7 mph N/A   Overcast
11:35 PM 32.0 °F 24.2 °F 23.0 °F 69% 29.92 in 10.0 mi NW 9.2 mph 17.3 mph N/A   Mostly Cloudy
11:55 PM 32.0 °F 23.6 °F 23.0 °F 69% 29.94 in 10.0 mi NW 10.4 mph - N/A   Clear